{"data":{"norad_id":40425,"intl_designator":"2015-010B","name":"EUTELSAT 115 WEST B","alt_names":[],"object_type":"PAYLOAD","status":"ACTIVE","operator":null,"country":"EUTE","launch_date":"2015-03-02","launch_site_code":"AFETR","launch_vehicle":null,"mission":null,"orbit_class":"UNKNOWN","rcs_meters":5.4794,"size_class":null,"mass_kg":null,"dimensions":null,"purposes":["comms"],"wikipedia_slug":null,"has_3d_model":false,"image_url":null,"decayed_at":null,"tle_current":{"epoch":"2026-09-20T03:52:57.297792Z","epoch_age_seconds":51217,"freshness":"FRESH","line1":"1 40425U 15010B   26263.16177428 -.00000029  00000+0  00000+0 0  9997","line2":"2 40425   0.0428 355.6316 0000097 270.3846  36.3865  1.00271634 42333","mean_motion":1.00271634,"eccentricity":9.7e-6,"inclination_deg":0.0428,"raan_deg":355.6316,"arg_perigee_deg":270.3846,"mean_anomaly_deg":36.3865,"bstar":0,"rev_number":4233,"period_min":1436.0990666613,"perigee_km":35786.228293715,"apogee_km":35787.046290336,"semimajor_km":42164.774292025,"source":"CELESTRAK","updated_at":"2026-09-20T09:00:35.215420Z"}}}